Regional Weather Roundup
Issued by NWS

Home | Current Version | Previous Version | Graphics & Text | Print | Product List | Glossary On
Versions: 1 2 3 4 5 6 7 8 9 10 11 12 13 14 15 16 17 18 19 20 21 22 23 24 25 26 27 28 29 30 31 32 33 34 35 36 37 38 39 40 41 42 43 44 45 46 47 48 49 50
000
ASUS43 KDTX 061210
RWRMI
MICHIGAN HOURLY REGIONAL WEATHER ROUNDUP
NATIONAL WEATHER SERVICE DETROIT/PONTIAC MI
800 AM EDT MON JUL 06 2015

NOTE: "FAIR" INDICATES FEW OR NO CLOUDS BELOW 12,000 FEET WITH NO
SIGNIFICANT WEATHER AND/OR OBSTRUCTION TO VISIBILITY.

MIZ047>049-052>055-059>063-066>070-074>076-081>083-061300-
SOUTHEAST LOWER MICHIGAN

CITY           SKY/WX    TMP DP  RH WIND       PRES   REMARKS
ADRIAN         SUNNY     61  59  93 CALM      30.09S FOG
6HR MIN TEMP:  57; 6HR MAX TEMP:  61;

ALMA           SUNNY     64  60  86 S6        30.05R
ANN ARBOR      SUNNY     59  59 100 CALM      30.07F FOG
BAD AXE        SUNNY     62  56  82 S3        30.07S
CARO           SUNNY     60  58  94 CALM      30.06S FOG
DETROIT CITY   SUNNY     65  59  81 CALM      30.07S
6HR MIN TEMP:  59; 6HR MAX TEMP:  65;

DETROIT        MOSUNNY   64  61  88 CALM      30.08R HAZE
6HR MIN TEMP:  61; 6HR MAX TEMP:  65;

FLINT          SUNNY     66  61  84 S3        30.07R HAZE
6HR MIN TEMP:  56; 6HR MAX TEMP:  66;

GROSSE ILE     SUNNY     64  63  94 CALM      30.06F FOG
HILLSDALE      SUNNY     64  63  96 S3        30.09R FOG
6HR MIN TEMP:  58; 6HR MAX TEMP:  64;

HOWELL         SUNNY     64  63  97 CALM      30.07S FOG

CITY           SKY/WX    TMP DP  RH WIND       PRES   REMARKS
JACKSON        MOSUNNY   64  60  87 SW5       30.07S
6HR MIN TEMP:  57; 6HR MAX TEMP:  64;

LAMBERTVILLE   SUNNY     63  61  91 CALM      30.08S FOG
6HR MIN TEMP:  58; 6HR MAX TEMP:  63;

LANSING        SUNNY     65  58  78 S8        30.06S
6HR MIN TEMP:  61; 6HR MAX TEMP:  67;

LAPEER         FAIR      58  56  94 CALM      30.08R FOG
MASON          SUNNY     60  58  93 S3        30.06F FOG
MONROE         SUNNY     62  62  97 CALM      30.07S FOG
6HR MIN TEMP:  56; 6HR MAX TEMP:  62;

MT. CLEMENS    SUNNY     63  59  88 CALM      30.06R
6HR MIN TEMP:  57; 6HR MAX TEMP:  63;

PONTIAC        SUNNY     63  60  90 CALM      30.07R FOG
6HR MIN TEMP:  56; 6HR MAX TEMP:  65;

PORT HOPE        N/A     66  56  70 SW7       30.04R
6HR MIN TEMP:  63; 6HR MAX TEMP:  69;

PORT HURON     SUNNY     59  59 100 CALM      30.08S FOG
TRI CITIES     SUNNY     66  59  78 S6        30.05S
6HR MIN TEMP:  62; 6HR MAX TEMP:  69;

MIDLAND        FAIR      65  58  76 S5        30.03S
TROY           SUNNY     66  60  81 CALM      30.09S
SAGINAW HB     SUNNY     64  63  94 S5        30.04S
$$
MIZ043>046-050>051-056>058-064>065-071>073-077>080-061300-
SOUTHWEST LOWER MICHIGAN

CITY           SKY/WX    TMP DP  RH WIND       PRES   REMARKS
BATTLE CREEK   SUNNY     66  60  81 S5        30.06F
6HR MIN TEMP:  60; 6HR MAX TEMP:  67;

BENTON HARBOR  SUNNY     67  63  87 S5        30.03R FOG
6HR MIN TEMP:  61; 6HR MAX TEMP:  67;

BIG RAPIDS     SUNNY     61  59  92 CALM      30.03R FOG
6HR MIN TEMP:  57; 6HR MAX TEMP:  61;

COLDWATER      SUNNY     64  61  91 SE3       30.07S FOG
6HR MIN TEMP:  57; 6HR MAX TEMP:  65;

FREMONT        FAIR      65  62  91 S3        30.02R
6HR MIN TEMP:  60; 6HR MAX TEMP:  65;

HOLLAND        SUNNY     66  62  87 S6        30.03R
6HR MIN TEMP:  62; 6HR MAX TEMP:  66;

GRAND RAPIDS   MOSUNNY   66  62  87 S8        30.03R FOG
6HR MIN TEMP:  61; 6HR MAX TEMP:  67;

IONIA          FAIR      64  60  87 S8        30.04R
KALAMAZOO      SUNNY     66  60  81 S6        30.05F
6HR MIN TEMP:  61; 6HR MAX TEMP:  69;

LUDINGTON      PTSUNNY   71  65  81 SE6       30.00S
6HR MIN TEMP:  62; 6HR MAX TEMP:  71;

MARSHALL       SUNNY     64  60  87 SE3       30.06S
MOUNT PLEASANT SUNNY     65  59  81 CALM      30.03R
6HR MIN TEMP:  63; 6HR MAX TEMP:  68;

MUSKEGON       MOSUNNY   71  62  73 S10       30.02R
6HR MIN TEMP:  63; 6HR MAX TEMP:  71;

SOUTH HAVEN    SUNNY     66  62  86 CALM      30.03R
$$
MIZ016>042-061300-
NORTHERN LOWER MICHIGAN

CITY           SKY/WX    TMP DP  RH WIND       PRES   REMARKS
ALPENA         SUNNY     66  61  84 SE3       30.03R
6HR MIN TEMP:  59; 6HR MAX TEMP:  66;

BEAVER ISLAND  PTSUNNY   69  59  70 S13G20    29.95S
6HR MIN TEMP:  67; 6HR MAX TEMP:  69;

BELLAIRE       PTSUNNY   67  62  83 CALM      30.00R
6HR MIN TEMP:  58; 6HR MAX TEMP:  67;

CADILLAC       MOSUNNY   65  60  84 S6        30.03R
CHARLEVOIX     PTSUNNY   69  61  73 S8        30.00S
FRANKFORT      PTSUNNY   72  57  60 S6        29.99R
GAYLORD        PTSUNNY   66  62  87 SW7       30.03R FOG
6HR MIN TEMP:  63; 6HR MAX TEMP:  66;

GRAYLING       PTSUNNY   64  62  92 CALM      30.04R FOG
HARBOR SPRINGS PTSUNNY   68  61  77 S6        29.98S
HOUGHTON LAKE  MOSUNNY   66  60  81 CALM      30.04R
6HR MIN TEMP:  64; 6HR MAX TEMP:  66;

MANISTEE       PTSUNNY   63  57  82 SE3       30.01R
OSCODA         SUNNY     65  61  86 SW3       30.04R
PELLSTON       PTSUNNY   68  61  78 S5        29.98S
6HR MIN TEMP:  58; 6HR MAX TEMP:  68;

ROGERS CITY    MOSUNNY   67  63  85 S8        30.02R
TRAVERSE CITY  PTSUNNY   67  60  78 S5        29.98R
6HR MIN TEMP:  64; 6HR MAX TEMP:  68;

$$
MIZ007>008-015-061300-
EASTERN UPPER MICHIGAN

CITY           SKY/WX    TMP DP  RH WIND       PRES   REMARKS
KINROSS        PTSUNNY   64  63  94 SE8       29.96S
6HR MIN TEMP:  57; 6HR MAX TEMP:  64;

MACKINAC ISLAN PTSUNNY   66  60  81 S8        29.97S
6HR MIN TEMP:  64; 6HR MAX TEMP:  67;

NEWBERRY       MOSUNNY   63  59  87 S14       29.91F
S. S. MARIE    PTSUNNY   65  60  84 S7        29.94F HAZE
6HR MIN TEMP:  58; 6HR MAX TEMP:  65;

MUNISING         N/A     71  63  75 S8G18     29.85F
6HR MIN TEMP:  67; 6HR MAX TEMP:  71;

$$
MIZ004>006-011>014-085-061300-
CENTRAL UPPER MICHIGAN

CITY           SKY/WX    TMP DP  RH WIND       PRES   REMARKS
MANISTIQUE     PTSUNNY   59  56  92 S7        29.92F FOG
6HR MIN TEMP:  57; 6HR MAX TEMP:  59;

ESCANABA       CLOUDY    66  63  88 S12       29.88F
6HR MIN TEMP:  66; 6HR MAX TEMP:  68;

MENOMINEE      CLOUDY    70  63  78 S5        29.91F
6HR MIN TEMP:  68; 6HR MAX TEMP:  70;

SAWYER-GWINN   SUNNY     66  63  88 S12       29.87S FOG
$$
MIZ001>003-009>011-084-061300-
WESTERN UPPER MICHIGAN

CITY           SKY/WX    TMP DP  RH WIND       PRES   REMARKS
IRON MOUNTAIN  CLOUDY    66  63  90 S7        29.89S FOG
6HR MIN TEMP:  65; 6HR MAX TEMP:  67;

HOUGHTON       LGT RAIN  67  65  93 W12       29.84R
6HR MIN TEMP:  67; 6HR MAX TEMP:  74; 6HR PCP:  0.14;

COPPER HARBOR    N/A     63  62  97 N8        29.82R
6HR MIN TEMP:  55; 6HR MAX TEMP:  74; 6HR PCP:  0.02;

IRONWOOD       CLOUDY    66  66 100 CALM      29.84R
6HR MIN TEMP:  66; 6HR MAX TEMP:  72;

$$

ABBREVIATIONS USED IN REMARKS
   TC - TEMPERATURE IN CELSIUS
  WCI - WIND CHILL INDEX
   HX - HEAT INDEX
  VSB - VISIBILITY



USA.gov is the U.S. government's official web portal to all federal, state and local government web resources and services.